Gadsden, AL

3:48 PM CST on December 05, 2019 (GMT -0600)
Gadsden Municipal

Weather History for KGAD - June, 2019

Change the Weather History Date:

Wednesday, June 12, 2019

  Actual Average Record
Temperature  
Mean Temperature 72 °F -  
Max Temperature 81 °F 82 °F 100 °F (1931)
Min Temperature 64 °F 63 °F 53 °F (1950)
Cooling Degree Days 7    
Growing Degree Days 22 (Base 50)    
Moisture  
Dew Point 69 °F    
Average Humidity 87    
Maximum Humidity 100    
Minimum Humidity 74    
Precipitation  
Precipitation 0.02 in - - ()
Sea Level Pressure  
Sea Level Pressure 29.94 in    
Wind  
Wind Speed 4 mph ()    
Max Wind Speed 10 mph    
Max Gust Speed -    
Visibility 8.6 miles    
Events Fog , Rain , Thunderstorm    
Averages and records for this station are not official NWS values.
T = Trace of Precipitation, MM = Missing Value Source: Averaged Metar Reports

Daily Weather History Graph

Daily Weather History Graph

Search for Another Location

Airport or City:

Astronomy

Jun. 12, 2019 Rise Set
Actual Time 5:32 AM CDT 7:55 PM CDT
Civil Twilight 5:03 AM CDT 8:25 PM CDT
Nautical Twilight 4:27 AM CDT 9:00 PM CDT
Astronomical Twilight 3:48 AM CDT 9:40 PM CDT
Moon 3:16 PM CDT (6/12) 2:30 AM CDT (6/12)
Length of Visible Light 15h 21m
Length of Day
14h 23m
Waxing Gibbous, 77% of the Moon is Illuminated
Jun 12
Waxing Gibbous
Jun 17
Full
Jun 25
Last Quarter
Jul 2
New
Jul 9
First Quarter

Hourly Weather History & Observations

Time (CDT) Temp. Heat Index Dew Point Humidity Pressure Visibility Wind Dir Wind Speed Gust Speed Precip Events Conditions
12:56 AM 66.0 °F - 62.1 °F 87% 29.99 in 10.0 mi NNW 4.6 mph - N/A   Mostly Cloudy
1:56 AM 66.0 °F - 64.0 °F 93% 29.98 in 10.0 mi Calm Calm - N/A   Mostly Cloudy
2:56 AM 66.9 °F - 62.1 °F 84% 29.97 in 10.0 mi North 3.5 mph - N/A   Mostly Cloudy
3:04 AM 66.2 °F - 62.6 °F 88% 29.98 in 10.0 mi Calm Calm - N/A   Mostly Cloudy
3:56 AM 66.9 °F - 66.0 °F 97% 29.97 in 10.0 mi NE 6.9 mph - 0.00 in Rain Light Rain
4:17 AM 68.0 °F - 64.4 °F 88% 29.98 in 10.0 mi NE 6.9 mph - N/A   Mostly Cloudy
4:56 AM 68.0 °F - 64.9 °F 90% 29.97 in 10.0 mi ENE 6.9 mph - N/A   Mostly Cloudy
5:56 AM 66.9 °F - 64.0 °F 90% 29.99 in 10.0 mi NE 5.8 mph - N/A   Mostly Cloudy
6:35 AM 69.8 °F - 64.4 °F 83% 29.99 in 10.0 mi NE 5.8 mph - N/A   Mostly Cloudy
6:56 AM 69.1 °F - 64.0 °F 84% 29.99 in 10.0 mi ENE 6.9 mph - N/A   Mostly Cloudy
7:56 AM 70.0 °F - 64.9 °F 84% 29.98 in 10.0 mi ENE 6.9 mph - N/A   Overcast
8:56 AM 73.9 °F - 66.0 °F 76% 29.98 in 10.0 mi East 8.1 mph - N/A   Overcast
9:56 AM 75.0 °F - 68.0 °F 79% 29.97 in 10.0 mi Variable 5.8 mph - N/A   Mostly Cloudy
10:16 AM 75.2 °F - 68.0 °F 78% 29.97 in 10.0 mi Variable 4.6 mph - N/A   Mostly Cloudy
10:31 AM 77.0 °F - 69.8 °F 78% 29.96 in 10.0 mi East 9.2 mph - N/A   Mostly Cloudy
10:40 AM 77.0 °F - 69.8 °F 78% 29.96 in 10.0 mi ESE 8.1 mph - N/A   Overcast
10:56 AM 75.9 °F - 69.1 °F 79% 29.96 in 10.0 mi East 9.2 mph - N/A   Overcast
11:56 AM 78.1 °F - 71.1 °F 79% 29.95 in 10.0 mi East 6.9 mph - N/A   Overcast
12:10 PM 80.6 °F 84.6 °F 71.6 °F 74% 29.95 in 10.0 mi East 9.2 mph - N/A   Overcast
12:21 PM 78.8 °F - 71.6 °F 78% 29.95 in 10.0 mi East 8.1 mph - N/A   Overcast
12:33 PM 78.8 °F - 71.6 °F 78% 29.95 in 10.0 mi ENE 6.9 mph - N/A   Overcast
12:56 PM 79.0 °F - 71.1 °F 77% 29.94 in 10.0 mi Calm Calm - N/A   Mostly Cloudy
1:11 PM 80.6 °F 85.4 °F 73.4 °F 79% 29.93 in 10.0 mi NNE 8.1 mph - N/A   Mostly Cloudy
1:29 PM 80.6 °F 84.6 °F 71.6 °F 74% 29.92 in 9.0 mi ENE 8.1 mph - N/A   Scattered Clouds
1:56 PM 80.1 °F 83.8 °F 72.0 °F 76% 29.90 in 10.0 mi East 10.4 mph - N/A   Scattered Clouds
2:39 PM 78.8 °F - 73.4 °F 83% 29.90 in 10.0 mi East 5.8 mph - N/A Thunderstorm Mostly Cloudy
2:56 PM 77.0 °F - 73.0 °F 88% 29.88 in 10.0 mi ENE 6.9 mph - 0.00 in Rain Rain
3:03 PM 75.2 °F - 73.4 °F 94% 29.89 in 10.0 mi ENE 6.9 mph - 0.00 in Rain , Thunderstorm Light Rain
3:27 PM 71.6 °F - 71.6 °F 100% 29.89 in 10.0 mi WSW 10.4 mph - 0.02 in Rain Light Rain
3:38 PM 71.6 °F - 71.6 °F 100% 29.88 in 10.0 mi NE 5.8 mph - 0.02 in Rain , Thunderstorm Light Rain
3:47 PM 73.4 °F - 73.4 °F 100% 29.88 in 10.0 mi North 4.6 mph - 0.02 in   Mostly Cloudy
3:56 PM 73.9 °F - 73.0 °F 97% 29.88 in 10.0 mi North 4.6 mph - 0.02 in   Partly Cloudy
4:41 PM 75.2 °F - 75.2 °F 100% 29.88 in 10.0 mi ESE 4.6 mph - N/A   Mostly Cloudy
4:56 PM 75.0 °F - 73.9 °F 96% 29.88 in 10.0 mi Calm Calm - N/A   Overcast
5:56 PM 75.0 °F - 73.9 °F 96% 29.88 in 10.0 mi West 3.5 mph - N/A   Overcast
6:56 PM 75.0 °F - 75.0 °F 100% 29.89 in 10.0 mi SSE 4.6 mph - N/A   Mostly Cloudy
7:56 PM 73.0 °F - 73.0 °F 100% 29.90 in 10.0 mi SE 5.8 mph - N/A   Mostly Cloudy
8:56 PM 70.0 °F - 70.0 °F 100% 29.91 in 10.0 mi East 3.5 mph - N/A   Scattered Clouds
9:56 PM 68.0 °F - - N/A% 29.93 in 10.0 mi Calm Calm - N/A   Clear
10:56 PM 66.0 °F - - N/A% 29.94 in 10.0 mi Calm Calm - N/A   Clear
11:01 PM 66.2 °F - - N/A% 29.93 in 1.5 mi Calm Calm - N/A   Clear
11:03 PM 66.2 °F - - N/A% 29.93 in 0.8 mi Calm Calm - N/A   Clear
11:07 PM 64.4 °F - - N/A% 29.93 in 0.2 mi Calm Calm - N/A Fog Fog
11:16 PM 64.4 °F - - N/A% 29.93 in 0.8 mi Calm Calm - N/A   Clear
11:20 PM 64.4 °F - - N/A% 29.93 in 1.2 mi Calm Calm - N/A   Clear
11:23 PM 64.4 °F - - N/A% 29.93 in 4.0 mi Calm Calm - N/A   Haze
11:33 PM 64.4 °F - - N/A% 29.93 in 1.8 mi Calm Calm - N/A   Partly Cloudy
11:49 PM 64.4 °F - - N/A% 29.93 in 3.0 mi Calm Calm - N/A   Mostly Cloudy
11:56 PM 64.9 °F - - N/A% 29.93 in 10.0 mi Calm Calm - N/A   Mostly Cloudy